Location: Bats
(43.6587°N, 0.4584°W)
Time: 16:18:17
(UTC+00:00)

COSMO-SKYMED 1 - Pass Details

Date: 12 January 2026
Orbit: 577 x 579 km, 97.9° (Epoch: 18 February)

Event Time Altitude Azimuth Distance (km) Brightness Sun altitude
Exits shadow 18:46:14 18° 4° (N) 1,471 4.3 -21.0°
Maximum altitude 18:49:14 65° 286° (WNW) 641 2.8 -21.6°
Drops below altitude 10° 18:53:17 10° 205° (SSW) 1,886 5.4 -22.3°
Sets 18:55:26 0° 202° (SSW) 2,779 6.3 -22.7°
